Location: Winthrop
(48.4780°N, 120.1850°W)
Time: 04:31:12
(UTC-08:00)

Vanguard 1 Rocket - Pass Details

Date: 04 December 2023
Orbit: 654 x 4218 km, 34.3° (Epoch: 24 February)

Event Time Altitude Azimuth Distance (km) Brightness Sun altitude
Rises 02:13:50 0° 193° (SSW) 8,451 - -51.4°
Exits shadow 02:16:26 - 189° (S) 8,110 12.0 -51.0°
Reaches altitude 10° 02:22:54 10° 179° (S) 7,260 11.7 -50.1°
Maximum altitude 02:36:33 19° 144° (SE) 5,784 11.4 -48.0°
Drops below altitude 10° 02:47:11 10° 107° (ESE) 5,589 11.8 -46.4°
Sets 02:52:31 0° 91° (E) 6,007 12.3 -45.6°
